Tracking 22438 objects as of 24-Feb-2021
HD Live streaming from Space Station
objects crossing your sky now

DELTA 1 DEB

Track DELTA 1 DEB now!
10-day predictions


NORAD ID: 21326
Int'l Code: 1975-052AU
Perigee: 1,088.6 km
Apogee: 1,136.3 km
Inclination: 100.0 °
Period: 107.4 minutes
Semi major axis: 7483 km
RCS: 0.0568 m2 (small)
Launch date: June 12, 1975
Source: United States (US)
Launch site: AIR FORCE WESTERN TEST RANGE (AFWTR)

Note: This is SATELLITE DEBRIS
aabbcc
Your satellite tracking list
Your tracking list is empty




NASA's NSSDC Master Catalog

Two Line Element Set (TLE):
1 21326U 75052AU  21055.52207241 -.00000033  00000-0  21408-4 0  9995
2 21326 100.0085 315.1234 0031884  76.6710  98.3025 13.41068067456053
Source of the keplerian elements: AFSPC